Change the Weather History Date:

Monday, December 16, 2013

  Actual Average Record
Temperature  
Mean Temperature 76 °F -  
Max Temperature 87 °F 88 °F 98 °F (1997)
Min Temperature 64 °F 69 °F 64 °F (2013)
Cooling Degree Days 10    
Growing Degree Days 26 (Base 50)    
Moisture  
Dew Point 63 °F    
Average Humidity 61    
Maximum Humidity 94    
Minimum Humidity 29    
Precipitation  
Precipitation 0.00 in - - ()
Sea Level Pressure  
Sea Level Pressure 29.92 in    
Wind  
Wind Speed 6 mph ()    
Max Wind Speed 10 mph    
Max Gust Speed -    
Visibility 6.0 miles    
Events Rain , Thunderstorm    
Averages and records for this station are not official NWS values.
T = Trace of Precipitation, MM = Missing Value Source: Averaged Metar Reports

Daily Weather History Graph

Daily Weather History Graph

Search for Another Location

Airport or City:

Trip Planner

Search our weather history database for the weather conditions in past years. The results will help you decide how hot, cold, wet, or windy it might be!

Date:

Astronomy

Dec. 16, 2013 Rise Set
Actual Time 5:41 AM CAT 7:02 PM CAT
Civil Twilight 5:17 AM CAT 7:26 PM CAT
Nautical Twilight 4:48 AM CAT 7:55 PM CAT
Astronomical Twilight 4:17 AM CAT 8:26 PM CAT
Moon 6:19 PM CAT (12/16) 4:53 AM CAT (12/16)
Length of Visible Light 14h 09m
Length of Day
13h 20m
Waxing Gibbous, 99% of the Moon is Illuminated
Dec 16
Waxing Gibbous
Dec 17
Full
Dec 25
Last Quarter
Jan 1
New
Jan 8
First Quarter

Hourly Weather History & Observations

Time (CAT) Temp. Heat Index Dew Point Humidity Pressure Visibility Wind Dir Wind Speed Gust Speed Precip Events Conditions
1:00 AM 77.0 °F - 64.4 °F 65% 29.98 in - North 3.5 mph - N/A   Clear
3:00 AM 66.2 °F - 64.4 °F 94% 30.01 in - South 10.4 mph - N/A   Clear
4:00 AM 64.4 °F - 62.6 °F 94% 30.01 in 3.1 mi SSE 10.4 mph - N/A Rain , Thunderstorm Thunderstorms and Rain
5:00 AM 66 °F - 63 °F 88%  in 6 mi South 9.2 mph - - Rain , Thunderstorm Thunderstorms and Rain
5:00 AM 66.2 °F - 62.6 °F 88% 30.01 in 6.2 mi South 9.2 mph - N/A Rain , Thunderstorm Light Thunderstorms and Rain
7:00 AM 66.2 °F - 60.8 °F 83% 29.95 in 6.2 mi ESE 6.9 mph - N/A Thunderstorm Thunderstorm
8:00 AM 69.8 °F - 62.6 °F 78% 29.95 in 6.2 mi North 4.6 mph - N/A   Scattered Clouds
9:00 AM 77.0 °F - 62.6 °F 61% 29.95 in 6.2 mi NNE 6.9 mph - N/A   Scattered Clouds
10:00 AM 80.6 °F 82.3 °F 64.4 °F 58% 29.95 in 6.2 mi North 8.1 mph - N/A   Scattered Clouds
11:00 AM 84 °F - 65 °F 43%  in 6 mi NW 3.5 mph - -   Partly Cloudy
11:00 AM 84.2 °F 85.6 °F 64.4 °F 51% 29.95 in 6.2 mi NW 3.5 mph - N/A   Partly Cloudy
1:00 PM 86.0 °F 86.6 °F 62.6 °F 45% 29.92 in 6.2 mi East 4.6 mph - N/A   Scattered Clouds
2:00 PM 86.0 °F 86.1 °F 60.8 °F 43% 29.89 in 6.2 mi WNW 4.6 mph - N/A   Partly Cloudy
3:00 PM 86.0 °F 86.1 °F 60.8 °F 43% 29.86 in 6.2 mi North 4.6 mph - N/A   Partly Cloudy
4:00 PM 87.8 °F 87.1 °F 59.0 °F 38% 29.86 in 6.2 mi SW 9.2 mph - N/A   Partly Cloudy
5:00 PM 87 °F - 59 °F 29%  in 6 mi WSW 5.8 mph - -   Partly Cloudy
5:00 PM 87.8 °F 87.1 °F 59.0 °F 38% 29.83 in 6.2 mi WSW 5.8 mph - N/A   Scattered Clouds
6:00 PM 86.0 °F 85.4 °F 59.0 °F 40% 29.83 in 6.2 mi SW 4.6 mph - N/A   Scattered Clouds
7:00 PM 80.6 °F 82.7 °F 66.2 °F 61% 29.86 in 6.2 mi East 9.2 mph - N/A   Scattered Clouds
8:00 PM 80.6 °F 83.2 °F 68.0 °F 65% 29.89 in 6.2 mi ENE 8.1 mph - N/A   Scattered Clouds
9:00 PM 80.6 °F 83.2 °F 68.0 °F 65% 29.89 in 6.2 mi NNE 4.6 mph - N/A   Scattered Clouds
10:00 PM 77.0 °F - 66.2 °F 69% 29.92 in 6.2 mi NE 6.9 mph - N/A   Scattered Clouds
11:00 PM 77.0 °F - 66.2 °F 69% 29.92 in 6.2 mi ENE 4.6 mph - N/A   Partly Cloudy